Meling Ranch Airstrip

Jump to: basic info | weather | comments

Related pages: nearby airports | nearby navaids

Basic information (top)

Codes: MSJG
Location: lon 30.975328, lat -115.737877
Status: small_airport

Weather (top)

Current conditions for General Rodolfo Sánchez Taboada International Airport 103nm (190km) NNE (rec'd 2014/09/23 15:49Z):

MMML 231549Z 13002KT 10SM SKC 30/19 A2981

Airport forecast for General Rodolfo Sánchez Taboada International Airport 103nm (190km) NNE (rec'd 2014/09/20 06:11Z):

TAF MMML 200507Z 2006/2106 12005KT P6SM SKC 
     FM201600 15010KT P6SM SKC 
     FM210200 13005KT P6SM SKC

Latest comments (top)

No comments yet for Meling Ranch Airstrip

More... (top)

See also NOTAMs and nearby airports and navaids, or visit the Meling Ranch Airstrip page at the main OurAirports website..